Flag for Turkey Weather past 2 weeks in Bursa, Turkey

Now
71 °F

Passing clouds.


Feels Like: 77 °F
Forecast: 49 / 69 °F
Wind: 7 mph from Northeast

Location: Bursa


UV Index: 3 (Moderate)

Visibility: 9 mi


Pressure: 29.83 "Hg

Humidity: 40%

Dew point: 45 °F

Location of BursaLocation

Historic Weather in Bursa

°F

Bursa temperature yesterday

Maximum temperature yesterday: 73 °F (at 2:00 PM)
Minimum temperature yesterday: 45 °F (at 6:00 AM)
Average temperature yesterday: 60 °F

Past Weeks' High & Low Weather Summary

 TemperatureHumidityPressure
High76 °F (Apr 6, 3:00 PM)100% (Apr 13, 3:00 AM)30.14 "Hg (Apr 13, 3:00 AM)
Low37 °F (Apr 13, 7:00 AM)27% (Apr 5, 4:00 PM)29.65 "Hg (Apr 9, 3:00 AM)
Average57 °F68%29.98 "Hg
* Reported Apr 2 12:00 Noon — Apr 17 12:00 Noon, Bursa, Weather by CustomWeather, © 2014

Note: Actual official high and low records may vary slightly from our data, if they occured in-between our weather recording intervals... More about our weather records

Advertising

Historic Weather Conditions — Data for Previous 24 hours

 ConditionsComfort  
Time TempWeatherWind HumidityBarometerVisibility
12:00 PM
Apr 17
71 °FPassing clouds.7 mph40%29.83 "Hg9 mi
11:00 AM68 °FScattered clouds.3 mph50%29.85 "Hg9 mi
10:00 AM65 °FScattered clouds.5 mph53%29.87 "Hg9 mi
9:00 AM62 °FPartly sunny.2 mph57%29.88 "Hg9 mi
8:00 AM57 °FPartly sunny.1 mph69%29.88 "Hg9 mi
7:00 AM52 °FPartly sunny.1 mph82%29.88 "Hg9 mi
6:00 AM53 °FPassing clouds.1 mph80%29.87 "Hg9 mi
5:00 AM54 °FPassing clouds.1 mph78%29.88 "Hg9 mi
4:00 AM54 °FPassing clouds.1 mph79%29.89 "Hg9 mi
3:00 AM54 °FPassing clouds.1 mph80%29.89 "Hg12 mi
2:00 AM55 °FPassing clouds.1 mph74%29.90 "Hg12 mi
1:00 AM55 °FPassing clouds.1 mph75%29.90 "Hg12 mi
12:00 AM55 °FPassing clouds.1 mph72%29.90 "Hg12 mi
11:00 PM
Apr 16
56 °FPassing clouds.1 mph69%29.90 "Hg12 mi
10:00 PM58 °FPassing clouds.1 mph64%29.90 "Hg12 mi
9:00 PM61 °FPassing clouds.1 mph55%29.90 "Hg12 mi
8:00 PM66 °FPassing clouds.2 mph44%29.88 "Hg12 mi
7:00 PM69 °FPartly sunny.8 mph36%29.87 "Hg12 mi
6:00 PM71 °FPartly sunny.7 mph41%29.87 "Hg12 mi
5:00 PM70 °FPartly sunny.7 mph39%29.87 "Hg9 mi
4:00 PM70 °FPartly sunny.9 mph45%29.86 "Hg9 mi
3:00 PM73 °FPartly sunny.9 mph41%29.85 "Hg9 mi
2:00 PM73 °FScattered clouds.3 mph37%29.86 "Hg9 mi
1:00 PM71 °FScattered clouds.3 mph46%29.88 "Hg9 mi
Weather by CustomWeather, © 2014

See weather overview